Regional Weather Roundup
Issued by NWS

Home | Current Version | Previous Version | Graphics & Text | Print | Product List | Glossary On
Versions: 1 2 3 4 5 6 7 8 9 10 11 12 13 14 15 16 17 18 19 20 21 22 23 24 25 26 27 28 29 30 31 32 33 34 35 36 37 38 39 40 41 42 43 44 45 46 47 48 49 50
000
ASUS45 KCYS 031010
RWRWY

WYOMING REGIONAL WEATHER ROUNDUP
NATIONAL WEATHER SERVICE CHEYENNE WY
400 AM MDT WED JUN 03 2015

NOTE:  "FAIR" INDICATES FEW OR NO CLOUDS BELOW 12,000 FEET
WITH NO SIGNIFICANT WEATHER AND/OR OBSTRUCTIONS TO VISIBILITY.

WYZ001-031100-
YELLOWSTONE NATIONAL PARK

CITY           SKY/WX    TMP DP  RH WIND       PRES   REMARKS
LK YELLOWSTONE   N/A     31  30  96 NW5       30.14S WCI  26
W YELLOWSTONE  NOT AVBL

$$
WYZ002>013-054>058-071-098>099-031100-
NORTHERN WYOMING

CITY           SKY/WX    TMP DP  RH WIND       PRES   REMARKS
JACKSON        FAIR      37  37 100 N3        30.07F
CODY           FAIR      48  43  81 CALM      30.02S
GREYBULL       FAIR      54  48  80 N3        29.97R
WORLAND        MOCLDY    51  48  89 E5        29.98R
SHERIDAN       FAIR      48  44  86 S3        29.99S
BUFFALO        CLOUDY    50  45  83 CALM      30.02F
GILLETTE       CLOUDY    53  51  93 CALM      30.00F
HULETT         FAIR      52  50  93 S5        29.99F
NEWCASTLE      FAIR      50  46  87 S3        29.98S

$$
WYZ014>020-022>026-101>103-031100-
CENTRAL WYOMING

CITY           SKY/WX    TMP DP  RH WIND       PRES   REMARKS
BIG PINEY      FAIR      40  36  86 N8        30.09F WCI  34
PINEDALE       FAIR      37  36  93 CALM      30.11S
DUBOIS         FAIR      39  32  75 NW7       30.10S WCI  34
LANDER         FAIR      49  43  80 W14       30.04R
RIVERTON       FAIR      50  43  77 E7        30.04R
CASPER         CLOUDY    52  48  86 CALM      30.03S
DOUGLAS        FAIR      48  46  93 MISG      30.02R

$$
WYZ021-027>030-104>119-031100-
SOUTHERN WYOMING

CITY           SKY/WX    TMP DP  RH WIND       PRES   REMARKS
EVANSTON       FAIR      49  35  58 NE7       30.07F
KEMMERER       FAIR      43  36  75 N5        30.10S
FORT BRIDGER   SUNNY     50  36  57 S5        30.10S
ROCK SPRINGS   FAIR      50  34  54 SW5       30.06F
DIXON          FAIR      44  36  72 E3        30.09F
RAWLINS        FAIR      45  35  68 CALM      30.06S
SARATOGA       FAIR      41  34  75 S3        30.10S
LARAMIE        FAIR      41  34  76 E3        30.09R
CHEYENNE       FAIR      50  45  83 NW10      30.04R
TORRINGTON     FAIR      53  49  86 N10       29.97R
PINE BLUFFS    FAIR      50  46  87 N10       30.00R

$$


USA.gov is the U.S. government's official web portal to all federal, state and local government web resources and services.